Barking Sands, HI

8:58 AM HST on March 30, 2017 (GMT -1000)
Barking Sands PMRF

Weather History for PHBK - November, 2013

Change the Weather History Date:

Thursday, November 21, 2013

  Actual Average Record
Temperature  
Mean Temperature 78 °F -  
Max Temperature 84 °F 83 °F 87 °F (1961)
Min Temperature 71 °F 65 °F 60 °F (1965)
Cooling Degree Days 12    
Growing Degree Days 28 (Base 50)    
Moisture  
Dew Point 66 °F    
Average Humidity 69    
Maximum Humidity 88    
Minimum Humidity 48    
Precipitation  
Precipitation 0.00 in - - ()
Sea Level Pressure  
Sea Level Pressure 29.98 in    
Wind  
Wind Speed 6 mph (SE)    
Max Wind Speed 12 mph    
Max Gust Speed 21 mph    
Visibility 10 miles    
Events Rain    
Averages and records for this station are not official NWS values.
T = Trace of Precipitation, MM = Missing Value Source: NWS Daily Summary

Daily Weather History Graph

Daily Weather History Graph

Search for Another Location

Airport or City:

Trip Planner

Search our weather history database for the weather conditions in past years. The results will help you decide how hot, cold, wet, or windy it might be!

Date:

Astronomy

Nov. 21, 2013 Rise Set
Actual Time 6:55 AM HST 5:54 PM HST
Civil Twilight 6:31 AM HST 6:18 PM HST
Nautical Twilight 6:04 AM HST 6:45 PM HST
Astronomical Twilight 5:37 AM HST 7:12 PM HST
Moon 9:37 PM HST (11/21) 10:12 AM HST (11/21)
Length of Visible Light 11h 47m
Length of Day
10h 59m
Waning Gibbous, 84% of the Moon is Illuminated
Nov 21
Waning Gibbous
Nov 25
Last Quarter
Dec 2
New
Dec 9
First Quarter
Dec 16
Full

Hourly Weather History & Observations

Time (HST) Temp. Heat Index Dew Point Humidity Pressure Visibility Wind Dir Wind Speed Gust Speed Precip Events Conditions
12:56 AM 71.1 °F - 66.0 °F 84% 29.99 in 10.0 mi SSE 4.6 mph - N/A   Clear
1:56 AM 72.0 °F - 64.0 °F 76% 29.95 in 10.0 mi SE 6.9 mph - N/A   Clear
2:56 AM 72.0 °F - 61.0 °F 68% 29.96 in 10.0 mi SSE 4.6 mph - N/A   Clear
3:56 AM 72.0 °F - 62.1 °F 71% 29.96 in 10.0 mi East 4.6 mph - N/A   Clear
4:56 AM 73.0 °F - 64.9 °F 76% 29.97 in 10.0 mi SE 5.8 mph - 0.00 in   Scattered Clouds
5:15 AM 73.4 °F - 66.2 °F 78% 29.95 in 10.0 mi SE 4.6 mph - 0.00 in Rain Light Rain
5:56 AM 73.9 °F - 68.0 °F 82% 29.96 in 10.0 mi SE 9.2 mph - 0.00 in   Overcast
6:32 AM 73.4 °F - 69.8 °F 88% 29.94 in 10.0 mi SSE 11.5 mph 20.7 mph 0.00 in   Partly Cloudy
6:56 AM 75.0 °F - 64.9 °F 71% 29.99 in 10.0 mi SSE 8.1 mph - 0.00 in   Scattered Clouds
7:56 AM 75.0 °F - 66.0 °F 73% 29.99 in 10.0 mi ESE 8.1 mph - N/A   Clear
8:56 AM 79.0 °F - 62.1 °F 56% 29.99 in 10.0 mi ENE 3.5 mph - N/A   Clear
9:56 AM 81.0 °F 83.8 °F 68.0 °F 65% 30.01 in 10.0 mi North 6.9 mph - N/A   Clear
10:56 AM 84.0 °F 84.9 °F 63.0 °F 49% 30.01 in 10.0 mi SE 10.4 mph - N/A   Clear
11:56 AM 84.9 °F 85.9 °F 63.0 °F 48% 29.99 in 10.0 mi SSE 9.2 mph 16.1 mph N/A   Clear
12:56 PM 82.0 °F 84.5 °F 66.9 °F 60% 29.97 in 10.0 mi South 10.4 mph - N/A   Clear
1:56 PM 82.0 °F 84.5 °F 66.9 °F 60% 29.94 in 10.0 mi South 8.1 mph - N/A   Clear
2:56 PM 81.0 °F 84.1 °F 69.1 °F 67% 29.94 in 10.0 mi SSW 8.1 mph - N/A   Clear
3:56 PM 82.0 °F 84.9 °F 68.0 °F 62% 29.94 in 10.0 mi SW 5.8 mph - N/A   Clear
4:56 PM 80.1 °F 82.3 °F 66.9 °F 64% 29.95 in 10.0 mi SW 4.6 mph - N/A   Clear
5:56 PM 79.0 °F - 66.9 °F 66% 29.97 in 10.0 mi WNW 5.8 mph - N/A   Clear
6:56 PM 78.1 °F - 66.9 °F 68% 29.99 in 10.0 mi NNW 4.6 mph - N/A   Clear
7:56 PM 75.0 °F - 66.0 °F 73% 30.01 in 10.0 mi NNE 5.8 mph - N/A   Clear
8:56 PM 75.0 °F - 64.9 °F 71% 30.01 in 10.0 mi North 5.8 mph - N/A   Clear
9:56 PM 75.9 °F - 66.0 °F 71% 30.02 in 10.0 mi North 6.9 mph - N/A   Clear
10:56 PM 75.0 °F - 66.9 °F 76% 30.02 in 10.0 mi NNE 4.6 mph - N/A   Clear
11:56 PM 72.0 °F - 63.0 °F 73% 30.02 in 10.0 mi ENE 3.5 mph - N/A   Clear